Regional Weather Roundup
Issued by NWS Upton, NY

Current Version | Previous Version | Graphics & Text | Print | Product List | Glossary Off
Versions: 1 2 3 4 5 6 7 8 9 10 11 12 13 14 15 16 17 18 19 20 21 22 23 24 25 26 27

000
ASUS41 KOKX 240809
RWROKX

REGIONAL WEATHER ROUNDUP
NATIONAL WEATHER SERVICE NEW YORK NY
400 AM EDT WED MAY 24 2017

NOTE: "FAIR" INDICATES FEW OR NO CLOUDS BELOW 12,000 FEET WITH NO
SIGNIFICANT WEATHER AND/OR OBSTRUCTIONS TO VISIBILITY.

NYZ071-072-176-178-NJZ106-104-240900-
NEW YORK CITY METRO AREA

CITY           SKY/WX    TMP DP  RH WIND       PRES   REMARKS
Central Park   CLOUDY    60  49  66 VRB5      29.76F
Wall St Helipt CLOUDY    61  50  67 SE8       29.75F
Bronx Bot Gard   N/A     57  50  77 N1        29.76R
LaGuardia APRT CLOUDY    61  49  64 SE7       29.74F
Kennedy INTL   LGT RAIN  58  54  86 SE5       29.76S
Breezy Point     N/A     55 N/A N/A E5          N/A
Newark/Liberty CLOUDY    60  49  66 SE7       29.74S
Teterboro      CLOUDY    60  54  80 CALM      29.73S
$$

NYZ177-179-078>081-240900-
LONG ISLAND NEW YORK

CITY           SKY/WX    TMP DP  RH WIND       PRES   REMARKS
Jones Beach      N/A     55 N/A N/A E5          N/A
Matinecock PT  NOT AVBL
Farmingdale    LGT RAIN  57  53  86 SE3       29.76R
MacArthur/ISP  LGT RAIN  56  55  97 CALM      29.75S
Shirley        LGT RAIN  55  55 100 CALM      29.76S
Mt Sinai Harb    N/A     57 N/A N/A S1          N/A
Westhampton    LGT RAIN  56  53  90 CALM      29.78R
East Hampton   CLOUDY    55  52  92 CALM      29.75F
Montauk          N/A     55  53  93 CALM      29.77F
$$

NYZ052-065-067-240900-
HUDSON VALLEY

CITY           SKY/WX    TMP DP  RH WIND       PRES   REMARKS
White Plains   CLOUDY    57  52  83 SE3       29.74S
Larchmont Harb   N/A     57 N/A N/A SE3         N/A
Croton O-T Hud   N/A     57 N/A N/A MISG        N/A
Newburgh       MOCLDY    55  54  94 CALM      29.76F
Montgomery     CLOUDY    53  51  93 CALM      29.73F
Poughkeepsie   CLOUDY    53  51  93 CALM      29.74F
Albany         CLOUDY    54  50  86 N3        29.76F
$$

NJZ001-105-106-008-010-013-015-019>022-104-240900-
NEW JERSEY

CITY           SKY/WX    TMP DP  RH WIND       PRES   REMARKS
Newark/Liberty CLOUDY    60  49  66 SE7       29.74S
Teterboro      CLOUDY    60  54  80 CALM      29.73S
Caldwell       CLOUDY    59  53  80 CALM      29.74F
Somerville     CLOUDY    56  55  97 CALM      29.71F
Linden         PTSUNNY   59  50  72 SE5       29.74F
Perth Amboy      N/A     57 N/A N/A E10         N/A
Sussex         CLOUDY    53  52  96 CALM      29.74F
Andover          N/A     54  52  93 CALM      29.73F
Trenton        LGT RAIN  56  53  90 E6        29.71F
Millville      LGT RAIN  56  56 100 NE8       29.70F
Atlantic City  LGT RAIN  57  55  94 N8        29.70F
Wrightstown    LGT RAIN  55  53  93 N3        29.70F
Toms River     LGT RAIN  56  55  97 NE8       29.72F
Belmar         LGT RAIN  55  54  96 NE6       29.73F
$$

PAZ047>061-062-071-240900-
EASTERN PENNSYLVANIA

CITY           SKY/WX    TMP DP  RH WIND       PRES   REMARKS
Philadelphia   CLOUDY    57  51  80 E7        29.72F
Allentown      CLOUDY    56  53  90 W3        29.73S
Scranton       CLOUDY    53  49  86 SE5       29.74F
$$

CTZ002-004>006-009-010-012-RIZ004-006-007-MAZ004-011-015-240900-
SOUTHERN NEW ENGLAND
 IN CT

CITY           SKY/WX    TMP DP  RH WIND       PRES   REMARKS
Bradley INTL   CLOUDY    55  53  93 N5        29.75F
Hartford       CLOUDY    57  53  86 CALM      29.75F
Danbury        CLOUDY    54  53  97 CALM      29.76F
Wtrbury/Oxford   N/A     54  48  82 CALM      29.77R
Bridgeport     CLOUDY    59  54  83 NE6       29.75S
Meriden        CLOUDY    55  53  93 CALM      29.76S
New Haven      CLOUDY    56  52  86 CALM      29.75F
Chester          N/A     55  54  94 CALM      29.76S
Groton         CLOUDY    56  52  86 CALM      29.75F
Wilimantic     CLOUDY    56  52  86 CALM      29.77F

 IN RI

CITY           SKY/WX    TMP DP  RH WIND       PRES   REMARKS
Providence     CLOUDY    56  55  97 CALM      29.77F
Block Island   CLOUDY    54  53  97 CALM      29.77
Westerly       CLOUDY    56  54  93 CALM      29.77F
 IN MA

CITY           SKY/WX    TMP DP  RH WIND       PRES   REMARKS
Boston         CLOUDY    56  54  93 S3        29.78F
Worcester      CLOUDY    60  43  53 N3        29.77F
Westfield      CLOUDY    53  53 100 N5        29.76F
Provincetown   CLOUDY    54  53  97 CALM      29.79F
Nantucket      CLOUDY    51  49  92 E6        29.77F
$$

ANZ330-335-338-340-345-350-353-355-240900-
COASTAL MARINE OBSERVATIONS


STATION/POSITION TIME  SKY/WX   TEMP    WIND        PRES    VSBY  WAVE
                                AIR SEA DIR/SP/G                  HT/PER
                 (UTC)          (F)     (DEG/KT/KT) (MB)    (MI)  (FT/S)
NY HARB ENTRANCE 0750            57 58   90/  8/  8 1007.0          3/ 7
20 S FIRE ISLAND 0750            55 55   40/ 10/ 12 1006.4          3/ 7
GREAT SOUTH BAY  0730            59 64  110/  8/ 10   N/A
23 SSW MONTAUK P 0750            55 55              1007.5          3/ 7
15 E BARNEGAT LI 0730               57                N/A           3/ 8
HUDSON CANYON    0750            54 54   60/ 16/ 17 1004.9          4/ 7
KINGS POINT      0748            58 58  190/  3/  3 1007.2
EXECUTION ROCKS  0745            58                   N/A
CENTRAL LI SOUND 0715            57      60/  4/  6   N/A           0
EASTERN LI SOUND NOT AVBL
ROBBINS REEF     0748            59     140/  9/ 11 1007.6
$$


>>>>>>>>>>>>>>>>>>>>>>>>>>>> KEY <<<<<<<<<<<<<<<<<<<<<<<<<<<
>                                                          <
>     SKY/WX - Sky Condition/Present Weather               <
>     TMP    - Temperature in Fahrenheit                   <
>     DP     - Dew Point in Fahrenheit                     <
>     RH     - Relative Humidity in Percent                <
>     WIND   - Direction (from) and Speed in MPH           <
>     PRES   - Mean Sea Level Pressure (inches of Hg)      <
>     WCI    - Wind Chill Index                            <
>     VSB    - VISIBILITY IN MILES                         <
>     HX     - HEAT INDEX                                  <
>     TC     - TEMPERATURE IN CELSIUS                      <
>     VRB    - VARIABLE WIND DIRECTION                     <
>                                                          <
>>>>>>>>>>>>>>>>>>>>>>>>>>>> KEY <<<<<<<<<<<<<<<<<<<<<<<<<<<




USA.gov is the U.S. government's official web portal to all federal, state and local government web resources and services.